{"data":{"norad_id":67730,"intl_designator":"2026-026K","name":"STARLINK-36747","alt_names":[],"object_type":"PAYLOAD","status":"ACTIVE","operator":null,"country":"US","launch_date":"2026-02-11","launch_site_code":"AFWTR","launch_vehicle":null,"mission":null,"orbit_class":"UNKNOWN","rcs_meters":null,"size_class":null,"mass_kg":null,"dimensions":null,"purposes":["comms"],"wikipedia_slug":null,"has_3d_model":false,"image_url":null,"decayed_at":null,"tle_current":{"epoch":"2026-05-25T03:45:26.270784Z","epoch_age_seconds":51717,"freshness":"FRESH","line1":"1 67730U 26026K   26145.15655406  .00019294  00000+0  59835-3 0  9996","line2":"2 67730  97.2835 198.6631 0001050 110.0240 250.1116 15.33450032 15847","mean_motion":15.33450032,"eccentricity":0.000105,"inclination_deg":97.2835,"raan_deg":198.6631,"arg_perigee_deg":110.024,"mean_anomaly_deg":250.1116,"bstar":0.00059835,"rev_number":1584,"period_min":93.905896504621,"perigee_km":464.80961798109,"apogee_km":466.24678767368,"semimajor_km":6843.6652028274,"source":"CELESTRAK","updated_at":"2026-05-25T13:38:21.688292Z"}}}